Cumberland, WI

3:43 PM CST on December 14, 2019 (GMT -0600)
Cumberland Municipal

Weather History for KUBE - October, 2019

Change the Weather History Date:

Sunday, October 6, 2019

  Actual Average (WUND) Record (WUND)
Temperature  
Mean Temperature 51 °F -  
Max Temperature 60 °F - - (-1)
Min Temperature 42 °F - - (-1)
Degree Days  
Heating Degree Days 14    
Growing Degree Days 1 (Base 50)    
Moisture  
Dew Point 39 °F    
Average Humidity 69    
Maximum Humidity 93    
Minimum Humidity 42    
Precipitation  
Precipitation 0.00 in - - ()
Sea Level Pressure  
Sea Level Pressure 29.90 in    
Wind  
Wind Speed 11 mph (WSW)    
Max Wind Speed 23 mph    
Max Gust Speed 36 mph    
Visibility 10 miles    
Events      
Averages and records for this station are not official NWS values.
T = Trace of Precipitation, MM = Missing Value Source: NWS Daily Summary

Daily Weather History Graph

Daily Weather History Graph

Search for Another Location

Airport or City:

Astronomy

Oct. 06, 2019 Rise Set
Actual Time 7:12 AM CDT 6:39 PM CDT
Civil Twilight 6:42 AM CDT 7:08 PM CDT
Nautical Twilight 6:08 AM CDT 7:42 PM CDT
Astronomical Twilight 5:33 AM CDT 8:17 PM CDT
Moon 3:40 PM CDT (10/6) No Moon Set
Length of Visible Light 12h 25m
Length of Day
11h 26m
First Quarter, 60% of the Moon is Illuminated
Oct 6
First Quarter
Oct 13
Full
Oct 21
Last Quarter
Oct 27
New
Nov 4
First Quarter

Hourly Weather History & Observations

Time (CDT) Temp. Windchill Dew Point Humidity Pressure Visibility Wind Dir Wind Speed Gust Speed Precip Events Conditions
12:15 AM 46.4 °F 41.1 °F 41.0 °F 81% 29.78 in 10.0 mi WSW 11.5 mph 19.6 mph N/A   Overcast
12:35 AM 46.4 °F 41.9 °F 41.0 °F 81% 29.78 in 10.0 mi WSW 9.2 mph 16.1 mph N/A   Overcast
12:55 AM 46.4 °F 41.5 °F 41.0 °F 81% 29.79 in 10.0 mi WSW 10.4 mph 16.1 mph N/A   Overcast
1:15 AM 46.4 °F 40.4 °F 41.0 °F 81% 29.79 in 10.0 mi WSW 13.8 mph 19.6 mph N/A   Overcast
1:35 AM 46.4 °F 41.1 °F 41.0 °F 81% 29.80 in 10.0 mi West 11.5 mph 19.6 mph N/A   Overcast
1:55 AM 46.4 °F 41.9 °F 42.8 °F 87% 29.81 in 10.0 mi WSW 9.2 mph 18.4 mph N/A   Overcast
2:15 AM 46.4 °F 40.4 °F 42.8 °F 87% 29.82 in 10.0 mi WSW 13.8 mph 17.3 mph N/A   Overcast
2:35 AM 44.6 °F 39.2 °F 41.0 °F 87% 29.82 in 10.0 mi SW 10.4 mph - N/A   Overcast
2:55 AM 44.6 °F 40.2 °F 41.0 °F 87% 29.82 in 10.0 mi SW 8.1 mph - N/A   Scattered Clouds
3:15 AM 42.8 °F 38.0 °F 41.0 °F 93% 29.81 in 10.0 mi SW 8.1 mph - N/A   Clear
3:35 AM 42.8 °F 37.5 °F 41.0 °F 93% 29.82 in 10.0 mi SW 9.2 mph - N/A   Clear
3:55 AM 42.8 °F 38.6 °F 41.0 °F 93% 29.82 in 10.0 mi SW 6.9 mph - N/A   Clear
4:15 AM 42.8 °F 38.0 °F 41.0 °F 93% 29.82 in 10.0 mi SW 8.1 mph - N/A   Clear
4:35 AM 42.8 °F 37.5 °F 41.0 °F 93% 29.82 in 10.0 mi SW 9.2 mph - N/A   Clear
4:55 AM 42.8 °F 38.0 °F 41.0 °F 93% 29.83 in 10.0 mi SW 8.1 mph - N/A   Clear
5:15 AM 42.8 °F 37.0 °F 41.0 °F 93% 29.84 in 10.0 mi SW 10.4 mph - N/A   Clear
5:35 AM 42.8 °F 37.0 °F 41.0 °F 93% 29.84 in 10.0 mi SW 10.4 mph - N/A   Clear
5:55 AM 42.8 °F 37.5 °F 41.0 °F 93% 29.84 in 10.0 mi SW 9.2 mph - N/A   Clear
6:15 AM 42.8 °F 37.5 °F 41.0 °F 93% 29.85 in 10.0 mi SW 9.2 mph - N/A   Clear
6:35 AM 42.8 °F 37.5 °F 41.0 °F 93% 29.85 in 10.0 mi SW 9.2 mph - N/A   Clear
6:55 AM 42.8 °F 37.0 °F 39.2 °F 87% 29.85 in 10.0 mi SW 10.4 mph - N/A   Clear
7:15 AM 42.8 °F 37.5 °F 39.2 °F 87% 29.85 in 10.0 mi SW 9.2 mph - N/A   Clear
7:35 AM 42.8 °F 37.5 °F 39.2 °F 87% 29.86 in 10.0 mi SW 9.2 mph - N/A   Clear
7:55 AM 42.8 °F 38.6 °F 39.2 °F 87% 29.86 in 10.0 mi WSW 6.9 mph - N/A   Clear
8:15 AM 44.6 °F 38.8 °F 39.2 °F 81% 29.86 in 10.0 mi WSW 11.5 mph 18.4 mph N/A   Clear
8:35 AM 46.4 °F 41.1 °F 39.2 °F 76% 29.86 in 10.0 mi WSW 11.5 mph 17.3 mph N/A   Clear
8:55 AM 46.4 °F 40.1 °F 39.2 °F 76% 29.86 in 10.0 mi WSW 15.0 mph 19.6 mph N/A   Clear
9:15 AM 48.2 °F - 39.2 °F 71% 29.87 in 10.0 mi WSW 11.5 mph - N/A   Clear
9:35 AM 50.0 °F - 39.2 °F 66% 29.87 in 10.0 mi SW 12.7 mph 16.1 mph N/A   Clear
9:55 AM 50.0 °F - 39.2 °F 66% 29.88 in 10.0 mi WSW 12.7 mph - N/A   Clear
10:15 AM 51.8 °F - 39.2 °F 62% 29.89 in 10.0 mi West 12.7 mph 19.6 mph N/A   Clear
10:35 AM 51.8 °F - 41.0 °F 67% 29.90 in 10.0 mi WSW 11.5 mph 17.3 mph N/A   Clear
10:55 AM 53.6 °F - 39.2 °F 58% 29.91 in 10.0 mi WSW 15.0 mph 24.2 mph N/A   Clear
11:15 AM 55.4 °F - 39.2 °F 54% 29.91 in 10.0 mi WSW 16.1 mph 20.7 mph N/A   Clear
11:35 AM 55.4 °F - 37.4 °F 51% 29.91 in 10.0 mi WSW 15.0 mph 25.3 mph N/A   Clear
11:55 AM 57.2 °F - 37.4 °F 48% 29.91 in 10.0 mi WSW 12.7 mph 21.9 mph N/A   Scattered Clouds
12:15 PM 59.0 °F - 37.4 °F 45% 29.91 in 10.0 mi WSW 19.6 mph 26.5 mph N/A   Clear
12:35 PM 59.0 °F - 37.4 °F 45% 29.91 in 10.0 mi WSW 18.4 mph 25.3 mph N/A   Clear
12:55 PM 59.0 °F - 37.4 °F 45% 29.90 in 10.0 mi SW 19.6 mph 26.5 mph N/A   Clear
1:15 PM 59.0 °F - 37.4 °F 45% 29.91 in 10.0 mi WSW 18.4 mph 27.6 mph N/A   Scattered Clouds
1:35 PM 60.8 °F - 37.4 °F 42% 29.90 in 10.0 mi WSW 15.0 mph 26.5 mph N/A   Scattered Clouds
1:55 PM 57.2 °F - 35.6 °F 44% 29.90 in 10.0 mi WSW 19.6 mph 31.1 mph N/A   Mostly Cloudy
2:15 PM 57.2 °F - 35.6 °F 44% 29.90 in 10.0 mi WSW 23.0 mph 35.7 mph N/A   Mostly Cloudy
2:35 PM 59.0 °F - 37.4 °F 45% 29.91 in 10.0 mi West 17.3 mph 31.1 mph N/A   Scattered Clouds
2:55 PM 57.2 °F - 37.4 °F 48% 29.91 in 10.0 mi West 16.1 mph 25.3 mph N/A   Scattered Clouds
3:15 PM 59.0 °F - 37.4 °F 45% 29.92 in 10.0 mi WSW 18.4 mph 31.1 mph N/A   Mostly Cloudy
3:35 PM 57.2 °F - 37.4 °F 48% 29.92 in 10.0 mi West 21.9 mph 27.6 mph N/A   Overcast
3:55 PM 55.4 °F - 37.4 °F 51% 29.93 in 10.0 mi West 15.0 mph 25.3 mph N/A   Mostly Cloudy
4:15 PM 55.4 °F - 37.4 °F 51% 29.93 in 10.0 mi West 12.7 mph 24.2 mph N/A   Overcast
4:35 PM 55.4 °F - 37.4 °F 51% 29.93 in 10.0 mi WSW 11.5 mph 17.3 mph N/A   Overcast
4:55 PM 55.4 °F - 37.4 °F 51% 29.93 in 10.0 mi WSW 9.2 mph - N/A   Overcast
5:15 PM 57.2 °F - 37.4 °F 48% 29.93 in 10.0 mi WSW 15.0 mph 21.9 mph N/A   Overcast
5:35 PM 55.4 °F - 37.4 °F 51% 29.93 in 10.0 mi WSW 12.7 mph 23.0 mph N/A   Mostly Cloudy
5:55 PM 55.4 °F - 37.4 °F 51% 29.93 in 10.0 mi WSW 13.8 mph 26.5 mph N/A   Scattered Clouds
6:15 PM 53.6 °F - 37.4 °F 54% 29.94 in 10.0 mi WSW 12.7 mph - N/A   Scattered Clouds
6:35 PM 53.6 °F - 37.4 °F 54% 29.94 in 10.0 mi WSW 9.2 mph - N/A   Scattered Clouds
6:55 PM 51.8 °F - 37.4 °F 58% 29.94 in 10.0 mi WSW 6.9 mph - N/A   Mostly Cloudy
7:15 PM 51.8 °F - 39.2 °F 62% 29.94 in 10.0 mi WSW 6.9 mph - N/A   Overcast
7:35 PM 51.8 °F - 39.2 °F 62% 29.96 in 10.0 mi West 3.5 mph - N/A   Overcast
7:55 PM 50.0 °F - 39.2 °F 66% 29.96 in 10.0 mi WSW 6.9 mph - N/A   Mostly Cloudy
8:15 PM 48.2 °F - 39.2 °F 71% 29.96 in 10.0 mi SW 4.6 mph - N/A   Scattered Clouds
8:35 PM 46.4 °F 42.9 °F 39.2 °F 76% 29.96 in 10.0 mi SW 6.9 mph - N/A   Clear
8:55 PM 46.4 °F 42.9 °F 39.2 °F 76% 29.97 in 10.0 mi WSW 6.9 mph - N/A   Scattered Clouds
9:15 PM 50.0 °F - 39.2 °F 66% 29.98 in 10.0 mi WSW 10.4 mph 16.1 mph N/A   Clear
9:35 PM 50.0 °F - 37.4 °F 62% 29.98 in 10.0 mi WSW 9.2 mph - N/A   Clear
9:55 PM 48.2 °F - 37.4 °F 66% 29.99 in 10.0 mi West 6.9 mph - N/A   Clear
10:15 PM 46.4 °F 42.9 °F 37.4 °F 71% 29.99 in 10.0 mi WSW 6.9 mph - N/A   Clear
10:35 PM 46.4 °F 42.9 °F 37.4 °F 71% 30.00 in 10.0 mi WSW 6.9 mph - N/A   Clear
10:55 PM 46.4 °F 43.5 °F 37.4 °F 71% 30.00 in 10.0 mi WSW 5.8 mph - N/A   Clear
11:15 PM 44.6 °F 40.7 °F 37.4 °F 76% 30.01 in 10.0 mi WSW 6.9 mph - N/A   Clear
11:35 PM 44.6 °F 40.7 °F 37.4 °F 76% 30.01 in 10.0 mi WSW 6.9 mph - N/A   Scattered Clouds
11:55 PM 44.6 °F 40.7 °F 37.4 °F 76% 30.01 in 10.0 mi WSW 6.9 mph - N/A   Scattered Clouds